STARLINK-34205, 64741

Orbit data source: Space-Track

STARLINK-34205, 64741 is a payload satellite owned by SpaceX/Seattle (US) in LEO that was launched on Wed, 02 Jul 2025 UTC via an FALCON 9 launch vehicle from the Air Force Eastern Test Range (AFETR). Payload-class satellites include a variety of spacecraft equipped with specific instruments for various scientific and technological missions. These include communications satellites like Starlink; space stations such as the ISS; scientific satellites like the Hubble; Earth observation satellites from companies like Planet Labs, Umbra, and HawkEye 360; GPS; miniature CubeSats for education and research; and military/defense satellites.

Loading next visibility...
Identifier
64741, 2025-144T
Orbit
LEO
Last TLE update
12 hours ago
Origin
Manufacturer
SpaceX/Seattle
Mission
Operational spacecraft
Bus & Motor
STARLINK V2MO, Unknown motor
Mass
575 kg wet, ~530 kg dry
Launch date (UTC)
2025-07-02 (1 week ago)
Launch vehicle
FALCON 9
Launch site
Air Force Eastern Test Range (AFETR)
Object type
Payload
Rocket body
Debris
Shape & HBR
Unknown
Radar Cross Section
RCS unknown

Expand to show TLE details & history

TLE from 12 hours ago
0 STARLINK-34205
1 64741U 25144T   25191.66668981 -.01236442  00000-0 -49402-2 0  9991
2 64741  53.1538 231.7075 0000884  69.7009  31.7243 15.88273274  2576
Epoch: 2025-07-10T16:00Z
TLE epoch observation values (Epoch: 2025-07-10T16:00:01.999Z)
Latitude
51.81736°
Longitude
171.5227°
Altitude
312.828 km
Speed
7.727 km/s
True Right ascension
22h 41m 26s
True Declination
51° 38' 20"
Sunlit
Object was in daylight at epoch
Visualization orbit readout
Latitude
20.58008°
Longitude
-135.97407°
Altitude
311.442 km
Speed
7.724 km/s
Apparent Right ascension
03h 14m 17s
Apparent Declination
-9° 15' 53"
Sunlit
Object is in daylight
Visualization observer readout
Local Sidereal Time
16:35:20
Azimuth
35.989° NE
Elevation
-54.434°
Doppler factor
1
Orbital elements
Apogee altitude
307.979 km
Perigee altitude
306.797 km
Semi-major axis
6,685.525 km
Eccentricity
0.00009
Inclination
53.1538°
RAAN
231.7075°
Arg. of periapsis
69.7009°
True anomaly
Unknown
Mean anomaly
31.7243°
Eccentric anomaly
Unknown
Mean motion
3.97045 °/min
Orbital period
90.67 mins
BSTAR
-0.0049402
Loading maneuver chart data...
Loading SW <> Apogee altitude chart data...
Loading historical data...
Loading historical data...
Loading historical data...
Loading historical data...
Loading historical data...
Loading historical data...
Loading historical data...

STARLINK-34205 Visibility forecast

Observer location: undefined°, undefined°

Span
Click to sort rows by Start time (UTC) header in descending order
Start Az.
Max El. time (UTC)
Max El. Az.
Max El.
End time (UTC)
End Az.
4 mins2025-07-11 05:21:28.700Z218.493° SW2025-07-11 05:23:28.700Z129.321° SE42.239°2025-07-11 05:25:28.700Z56.951° ENE
|